North Platte, NE

10:45 AM CDT on April 30, 2017 (GMT -0500)
North Platte Regional-Bird

Weather History for KLBF - September, 2012

Change the Weather History Date:

Monday, September 17, 2012

  Actual Average Record
Temperature  
Mean Temperature 55 °F 62 °F  
Max Temperature 70 °F 77 °F 101 °F (1895)
Min Temperature 39 °F 46 °F 24 °F (1903)
Degree Days  
Heating Degree Days 10 5  
Month to date heating degree days 44 54  
Since 1 July heating degree days 55 74  
Cooling Degree Days 0 2  
Month to date cooling degree days 78 57  
Year to date cooling degree days 1243 752  
Growing Degree Days 8 (Base 50)    
Moisture  
Dew Point 38 °F    
Average Humidity 53    
Maximum Humidity 80    
Minimum Humidity 26    
Precipitation  
Precipitation 0.00 in 0.05 in 0.82 in (1959)
Month to date precipitation 0.10 0.80  
Year to date precipitation 9.34 17.02  
Snow  
Snow 0.00 in 0.00 in 0.00 in (2002)
Month to date snowfall 0.0 0.0  
Since 1 July snowfall 0.0 0.0  
Since 1 September snowfall 0.0 0.0  
Snow Depth 0.00 in    
Sea Level Pressure  
Sea Level Pressure 30.07 in    
Wind  
Wind Speed 11 mph (North)    
Max Wind Speed 23 mph    
Max Gust Speed 30 mph    
Visibility 10 miles    
Events      
T = Trace of Precipitation, MM = Missing Value Source: NWS Daily Summary

Daily Weather History Graph

Daily Weather History Graph

Search for Another Location

Airport or City:

Trip Planner

Search our weather history database for the weather conditions in past years. The results will help you decide how hot, cold, wet, or windy it might be!

Date:

Astronomy

Sep. 17, 2012 Rise Set
Actual Time 7:25 AM CDT 7:47 PM CDT
Civil Twilight 6:58 AM CDT 8:15 PM CDT
Nautical Twilight 6:25 AM CDT 8:47 PM CDT
Astronomical Twilight 5:52 AM CDT 9:20 PM CDT
Moon 9:18 AM CDT (9/17) 8:28 PM CDT (9/17)
Length of Visible Light 13h 16m
Length of Day
12h 21m
Waxing Crescent, 3% of the Moon is Illuminated
Sep 17
Waxing Crescent
Sep 22
First Quarter
Sep 29
Full
Oct 8
Last Quarter
Oct 15
New

Hourly Weather History & Observations

Time (CDT) Temp. Dew Point Humidity Pressure Visibility Wind Dir Wind Speed Gust Speed Precip Events Conditions
12:53 AM 55.0 °F 37.9 °F 53% 29.93 in 10.0 mi NW 6.9 mph - N/A   Clear
1:53 AM 55.0 °F 37.9 °F 53% 29.96 in 10.0 mi NNW 21.9 mph 28.8 mph N/A   Clear
2:53 AM 55.0 °F 37.9 °F 53% 30.00 in 10.0 mi NNW 12.7 mph - N/A   Clear
3:53 AM 53.6 °F 39.2 °F 58% 30.06 in 10.0 mi North 12.7 mph - N/A   Clear
4:53 AM 54.0 °F 41.0 °F 62% 30.02 in 10.0 mi North 12.7 mph - N/A   Clear
5:53 AM 52.0 °F 39.9 °F 63% 30.03 in 10.0 mi North 15.0 mph 25.3 mph N/A   Clear
6:53 AM 50.0 °F 41.0 °F 71% 30.04 in 10.0 mi North 16.1 mph 23.0 mph N/A   Partly Cloudy
7:53 AM 48.9 °F 42.1 °F 77% 30.09 in 10.0 mi North 13.8 mph - N/A   Partly Cloudy
8:53 AM 48.9 °F 42.1 °F 77% 30.09 in 10.0 mi North 13.8 mph 20.7 mph N/A   Clear
9:53 AM 51.1 °F 42.1 °F 71% 30.14 in 10.0 mi North 16.1 mph - N/A   Clear
10:53 AM 54.0 °F 41.0 °F 62% 30.14 in 10.0 mi NNE 13.8 mph 20.7 mph N/A   Clear
11:53 AM 57.9 °F 39.0 °F 49% 30.13 in 10.0 mi NNE 11.5 mph - N/A   Clear
12:53 PM 64.9 °F 35.1 °F 33% 30.11 in 10.0 mi NNE 10.4 mph - N/A   Clear
1:53 PM 66.9 °F 34.0 °F 30% 30.10 in 10.0 mi NNE 11.5 mph 20.7 mph N/A   Clear
2:53 PM 69.1 °F 35.1 °F 29% 30.09 in 10.0 mi North 13.8 mph 21.9 mph N/A   Scattered Clouds
3:53 PM 69.1 °F 36.0 °F 30% 30.07 in 10.0 mi North 12.7 mph 23.0 mph N/A   Partly Cloudy
4:53 PM 69.1 °F 35.1 °F 29% 30.05 in 10.0 mi North 11.5 mph - N/A   Clear
5:53 PM 69.1 °F 34.0 °F 27% 30.06 in 10.0 mi NNE 11.5 mph - N/A   Clear
6:53 PM 64.9 °F 34.0 °F 32% 30.08 in 10.0 mi North 10.4 mph - N/A   Clear
7:53 PM 60.1 °F 35.1 °F 39% 30.10 in 10.0 mi NNE 6.9 mph - N/A   Clear
8:53 PM 53.1 °F 34.0 °F 48% 30.12 in 10.0 mi NE 4.6 mph - N/A   Clear
9:53 PM 50.0 °F 35.1 °F 57% 30.13 in 10.0 mi Calm Calm - N/A   Clear
10:53 PM 45.0 °F 36.0 °F 71% 30.14 in 10.0 mi Calm Calm - N/A   Clear
11:53 PM 42.1 °F 35.1 °F 76% 30.14 in 10.0 mi Calm Calm - N/A   Clear